Regional Weather Roundup
Issued by NWS

Home | Current Version | Previous Version | Text Only | Print | Product List | Glossary On
Versions: 1 2 3 4 5 6 7 8 9 10 11 12 13 14 15 16 17 18 19 20 21 22 23 24 25 26 27 28 29 30 31 32 33 34 35 36 37 38 39 40 41 42 43 44 45 46 47 48 49 50
620
ASUS43 KOAX 181302
RWRNE

WEATHER ROUNDUP FOR NEBRASKA
NATIONAL WEATHER SERVICE OMAHA NE
700 AM CST THU JAN 18 2018

NOTES: SATELLITE DATA IS BEING USED TO AUGMENT CLOUD COVER ABOVE
       12000 FEET.
       "FAIR" INDICATES FEW OR NO CLOUDS BELOW 12,000 FEET WITH NO
       SIGNIFICANT WEATHER AND/OR OBSTRUCTIONS TO VISIBILITY.


NEZ001>004-019>022-054>056-181400-
NEBRASKA PANHANDLE

CITY           SKY/WX    TMP DP  RH WIND       PRES   REMARKS
SCOTTSBLUFF    PTCLDY    17  13  84 CALM      30.01F
ALLIANCE       CLEAR     18  16  92 W7        29.98F WCI   9
CHADRON        PTCLDY    24  18  77 SW9       29.98F WCI  14
GORDON         FAIR      26  19  76 SW10      29.93F WCI  16
KIMBALL        PTCLDY    28  18  67 W15       30.04F WCI  16
SIDNEY         PTCLDY    22  17  81 SW10      30.04F WCI  11
$$

NEZ057>060-069>072-079>082-181400-
SOUTHWEST NEBRASKA

CITY           SKY/WX    TMP DP  RH WIND       PRES   REMARKS
NORTH PLATTE   CLEAR     14  10  84 CALM      30.04F
IMPERIAL       PTCLDY    24  18  77 W10       30.06F WCI  14
LEXINGTON      CLEAR     14  10  83 NW7       30.06F WCI   4
MCCOOK         CLEAR     18  14  84 W10       30.08F WCI   6
OGALLALA       PTCLDY    20  17  88 W6        30.04F WCI  13
$$

NEZ005>010-023>029-035>040-094-181400-
NORTH CENTRAL NEBRASKA

CITY           SKY/WX    TMP DP  RH WIND       PRES   REMARKS
VALENTINE      PTCLDY    26  20  77 W12       29.93F WCI  16
AINSWORTH      PTCLDY    29  22  75 SW8       29.94F WCI  21
BROKEN BOW     CLEAR     21  14  74 CALM      30.00F
O`NEILL        CLEAR     20  17  89 S9        29.97F WCI   9
THEDFORD       MOCLDY    29  21  73 W6        29.98F WCI  23
$$

NEZ041-046>049-061>064-073>077-083>087-181400-
SOUTH CENTRAL NEBRASKA

CITY           SKY/WX    TMP DP  RH WIND       PRES   REMARKS
GRAND ISLAND   CLOUDY    17  12  80 S9        30.05F WCI   6
AURORA         CLOUDY    14   9  80 SW9       30.07S WCI   2
HASTINGS       CLOUDY    16   9  74 S7        30.07F WCI   6
HEBRON         CLOUDY    17   9  68 SW9       30.13F WCI   6
HOLDREGE       CLOUDY    21  16  82 SW5       30.07S WCI  14
KEARNEY        CLOUDY    16  12  84 W7        30.06F WCI   6
YORK           CLOUDY    14  10  85 S8        30.09S WCI   3
$$

NEZ011>018-030>034-042>045-181400-
NORTHEAST NEBRASKA

CITY           SKY/WX    TMP DP  RH WIND       PRES   REMARKS
NORFOLK        CLOUDY    13  10  88 S3        30.02F
ALBION         CLOUDY    19  15  83 CALM      30.03S
BLAIR          CLOUDY    19  11  70 S13       30.09F WCI   7
COLUMBUS       CLOUDY    16  11  80 SW3       30.07F
FREMONT        CLOUDY    19  11  72 S6        30.09F WCI  11
TEKAMAH        CLOUDY    15   9  76 S8        30.07F WCI   4
WAYNE          CLOUDY    19  16  86 S10       29.99F WCI   8
$$

NEZ050>053-065>068-078-088>093-181400-
SOUTHEAST NEBRASKA

CITY           SKY/WX    TMP DP  RH WIND       PRES   REMARKS
LINCOLN        CLOUDY    15   7  70 S8        30.13F WCI   4
OMAHA EPPLEY   CLOUDY    14   8  77 SE12      30.13F WCI   0
BEATRICE       CLOUDY    15   8  72 S3        30.16F
FALLS CITY     CLOUDY    13   6  74 SE5       30.20F WCI   5
NEBRASKA CITY  CLOUDY    19  10  68 S7        30.16S WCI  10
PLATTSMOUTH    CLOUDY    18   9  70 S10       30.13F WCI   6
$$

NEZ044-045-051>053-067-181400-
OMAHA AREA

CITY           SKY/WX    TMP DP  RH WIND       PRES   REMARKS
OMAHA EPPLEY   CLOUDY    14   8  77 SE12      30.13F WCI   0
BLAIR          CLOUDY    19  11  70 S13       30.09F WCI   7
FREMONT        CLOUDY    19  11  72 S6        30.09F WCI  11
MILLARD        CLOUDY    18  10  71 SE3       30.13F
OFFUTT AFB     CLOUDY     5   1  84 MISG      30.12F
PLATTSMOUTH    CLOUDY    18   9  70 S10       30.13F WCI   6
WAHOO          FAIR      16   9  73 S10       30.10F WCI   4
$$




USA.gov is the U.S. government's official web portal to all federal, state and local government web resources and services.